User: anonymous   Login
Location: Unspecified
(42.0334°N, 93.6656°W)
Time: 02:02:14
(UTC-05:00)
Language:

Iridium 63 - Orbit

View from above orbital plane
View from above orbital plane
View from above satellite
View from above satellite

Ground track
Ground track

The orbit data is extracted from the following two-line orbital elements,

1 25286U 98021B   14303.45875039  .00000622  00000-0  21475-3 0   358
2 25286 086.3977 265.7554 0002198 097.6396 016.4793 14.34275594867318
Epoch (UTC): 30 October 2014 11:00:36
Eccentricity: 0.0002198
inclination: 86.3977°
perigee height: 776 km
apogee height: 779 km
right ascension of ascending node: 265.7554°
argument of perigee: 97.6396°
revolutions per day: 14.34275594
mean anomaly at epoch: 16.4793°
orbit number at epoch: 86731

The dashed part of the orbit path shows where the satellite is in the earth's shadow,  

DLR